Regional Weather Roundup
Issued by NWS

Home | Current Version | Previous Version | Text Only | Print | Product List | Glossary Off
Versions: 1 2 3 4 5 6 7 8 9 10 11 12 13 14 15 16 17 18 19 20 21 22 23 24 25 26 27 28 29 30 31 32 33 34 35 36 37 38 39 40 41 42 43 44 45 46 47 48 49 50

000
ASUS43 KDMX 230006
RWRIA

WEATHER ROUNDUP FOR IOWA
NATIONAL WEATHER SERVICE DES MOINES IA
700 PM CDT SUN OCT 22 2017

NOTE: "FAIR" INDICATES FEW OR NO CLOUDS BELOW 12,000 FEET WITH NO
SIGNIFICANT WEATHER AND/OR OBSTRUCTIONS TO VISIBILITY.

* - THESE STATIONS ARE NOT NWS STATIONS...THUS NOT UNDER NWS
QUALITY CONTROL.  THEY ALSO DO NOT REPORT WEATHER SUCH
AS PRECIPITATION OR FOG.

IAZ001>003-012>014-020>022-031>034-043>046-230100-
   NORTHWEST IOWA

CITY           SKY/WX    TMP DP  RH WIND       PRES   REMARKS
CHEROKEE *     CLEAR     54  33  44 S7        29.96S
DENISON *      CLEAR     57  34  41 S10       30.01S
LE MARS *      CLEAR     57  32  38 S7        29.93F
ORANGE CITY *  CLEAR     57  34  41 S7        29.93F
SHELDON *      CLEAR     57  30  35 S8        29.91F
SIOUX CITY     CLEAR     58  31  35 S8        29.94F
6HR MIN TEMP:  58; 6HR MAX TEMP:  69;

SPENCER        CLEAR     51  34  52 S8        29.95F
6HR MIN TEMP:  50; 6HR MAX TEMP:  66;

STORM LAKE *   CLEAR     55  32  41 S9        29.98S
$$

IAZ055>058-069>071-079>083-090>094-230100-
   SOUTHWEST IOWA

CITY           SKY/WX    TMP DP  RH WIND       PRES   REMARKS
ATLANTIC *     CLEAR     55  36  47 S3        30.02F
AUDUBON *      CLEAR     52  37  58 CALM      30.03F
CLARINDA *     CLEAR     54  37  54 CALM      30.07S
COUNCIL BLFS * CLEAR     59  34  38 S7        30.01S
CRESTON *      CLEAR     59  30  33 SW5       30.06F
HARLAN  *      CLEAR     55  36  47 CALM      30.04F
LAMONI         CLOUDY    58  37  45 S6        30.06F
6HR MIN TEMP:  58; 6HR MAX TEMP:  64;

RED OAK *      CLEAR     55  36  47 S5        30.04S
SHENANDOAH *   CLEAR     57  32  38 S8        30.04F
$$

IAZ047>049-059>061-072>074-084-230100-
   CENTRAL IOWA

CITY           SKY/WX    TMP DP  RH WIND       PRES   REMARKS
AMES           CLEAR     50  40  68 S3        30.02S
6HR MIN TEMP:  50; 6HR MAX TEMP:  67;

ANKENY *       CLEAR     52  39  62 CALM      30.04S
BOONE *        CLEAR     59  30  33 S5        30.02S
CHARITON *     CLOUDY    54  45  71 S7        30.06S
DES MOINES     PTCLDY    58  38  47 SE8       30.03S
6HR MIN TEMP:  58; 6HR MAX TEMP:  67;

GRINNELL*      CLOUDY    51  45  78 S6        30.06S
KNOXVILLE *    PTCLDY    54  45  71 S7        30.04F
MARSHALLTOWN   PTCLDY    55  40  56 SE6       30.03S
6HR MIN TEMP:  53; 6HR MAX TEMP:  62;

NEWTON *       CLOUDY    52  45  76 SE8       30.05R
PELLA *        CLOUDY    54  44  69 CALM      30.06F
PERRY *          N/A     52  33  47 S7        30.03S
$$

IAZ004>006-015-016-023>025-035-036-230100-
   NORTH CENTRAL IOWA

CITY           SKY/WX    TMP DP  RH WIND       PRES   REMARKS
ALGONA *       CLEAR     52  36  54 S7        29.99S
CLARION *      CLEAR     50  37  62 S8        30.01S
ESTHERVILLE    CLEAR     50  34  54 S9        29.95F
6HR MIN TEMP:  50; 6HR MAX TEMP:  64;

FORT DODGE *   CLEAR     58  33  39 S5        30.01S
MASON CITY     CLEAR     51  33  50 S6        30.01S
6HR MIN TEMP:  51; 6HR MAX TEMP:  64;

FOREST CITY *    N/A     52  36  54 S5        29.99S
WEBSTER CITY * CLEAR     52  32  46 S8        29.99F
IOWA FALLS *     N/A     55  36  49 S6        30.03S
$$

IAZ007>011-017>019-026>030-037>042-050>054-066-230100-
   NORTHEAST IOWA

CITY           SKY/WX    TMP DP  RH WIND       PRES   REMARKS
CEDAR RAPIDS   CLOUDY    50  47  89 CALM      30.06R
6HR MIN TEMP:  50; 6HR MAX TEMP:  56;

CHARLES CITY * CLOUDY    54  37  54 S8        30.02S
CLINTON *      CLOUDY    51  50  96 CALM      30.08R
DECORAH *      CLOUDY    50  45  81 S6        30.02S
DUBUQUE        CLOUDY    51  46  83 CALM      30.06S
6HR MIN TEMP:  50; 6HR MAX TEMP:  53; 6HR PCP: TRACE;

MONTICELLO *   CLOUDY    50  48  93 CALM      30.06R
OELWEIN *      CLOUDY    50  48  93 SE7       30.05S
WATERLOO       PTCLDY    51  44  77 SE7       30.03S
6HR MIN TEMP:  51; 6HR MAX TEMP:  57;

$$

IAZ064-065-067-068-078-230100-
   EAST CENTRAL IOWA

CITY           SKY/WX    TMP DP  RH WIND       PRES   REMARKS
DAVENPORT      CLOUDY    50  49  96 CALM      30.09R
6HR MIN TEMP:  50; 6HR MAX TEMP:  53; 6HR PCP:  0.03;

IOWA CITY      CLOUDY    52  48  86 CALM      30.09R
6HR MIN TEMP:  52; 6HR MAX TEMP:  58; 6HR PCP: TRACE;

MUSCATINE *    CLOUDY    54  50  87 CALM      30.08R
QUAD CITIES    CLOUDY    52  49  89 CALM      30.07R
6HR MIN TEMP:  52; 6HR MAX TEMP:  54; 6HR PCP:  0.04;

$$

IAZ062-063-075>077-085>089-095>099-230100-
   SOUTHEAST IOWA

CITY           SKY/WX    TMP DP  RH WIND       PRES   REMARKS
BURLINGTON     CLOUDY    52  51  97 CALM      30.08R
6HR MIN TEMP:  52; 6HR MAX TEMP:  55; 6HR PCP: TRACE;

FAIRFIELD *    MOCLDY    52  46  82 CALM      30.08R
FORT MADISON * CLOUDY    54  52  94 CALM      30.09R
KEOKUK *       CLOUDY    54  50  87 W3        30.08R
OSKALOOSA *      N/A     52  48  88 S6        30.07S
OTTUMWA        CLOUDY    53  48  83 S5        30.07R
6HR MIN TEMP:  53; 6HR MAX TEMP:  59;

WASHINGTON *   CLOUDY    52  48  87 SW3       30.09R
$$

ABBREVIATIONS USED IN REMARKS
   TC - TEMPERATURES IN CELSIUS
  WCI - WIND CHILL INDEX
   HX - HEAT INDEX
  VSB - VISIBILITY
$$




USA.gov is the U.S. government's official web portal to all federal, state and local government web resources and services.